TELKOM 4 (MERAH PUTIH) (43587 NORAD) Tracking and Keplerian Element Data

This shows tracking and keplerian element data for the satellite.

Feedback or suggestion? Click here.




ElementValue
Catalog43587
NameTELKOM 4 (MERAH PUTIH)
Epoch Orbit266
Epoch Day111.93035483
Epoch Year2019
RAAN138.9582
Inclination0.0205
Eccentricity0.0001583
Argument of Perigee273.4331
Mean Anonmoly240.2379
Mean Motion1.00271555
Decay Rate-3.61E-06
L11 43587U 18064A 19111.93035483 -.00000361 00000-0 00000-0 0 9995
L22 43587 0.0205 138.9582 0001583 273.4331 240.2379 1.00271555 2669

Live tracking and technical data element details for TELKOM 4 (MERAH PUTIH) (NORAD 43587). TELKOM 4 (MERAH PUTIH) can be tracked NOW for your location showing map with azimuth and elevation plus other details from your city location.

Track the satellite on the map from your city or location and see movement details for azimuth, elevation, latitude, longitude, range, height, and movement on the map or in text.







IsCatalogInMostPopularTable: catalog: 43587, numindb: 122
Update: records affected: 1



GetName: 43587 TELKOM 4 (MERAH PUTIH)

Hit Count: updated at: Tue, 23 Apr 2019 20:17:12 GMT